ETD294 OMAA-UACC

Flight info

Callsign ETD294
Flight time N/A
Altitude 35000
Route TULON M318 RIKOP B114 ASB B359 MAVAX A370 DARVA M75 KOKON
Aircraft A320/M-S/C

Departure

Time 2026-05-06 19:25
Airport Zayed International Airport (OMAA)

Arrival

Time N/A
Airport Nursultan Nazarbayev International Airport (UACC)
Time Latitude Longitude Altitude Speed Heading
2026-05-06 19:25 24.56958 54.45853 8912 ft 277 kts 307°
2026-05-06 19:25 24.58146 54.44173 9596 ft 279 kts 307°
2026-05-06 19:25 24.59518 54.42669 10246 ft 281 kts 327°
2026-05-06 19:26 24.61314 54.41900 10937 ft 278 kts 352°
2026-05-06 19:26 24.63230 54.42009 11577 ft 277 kts 17°
2026-05-06 19:26 24.64923 54.42964 12247 ft 273 kts 36°
2026-05-06 19:26 24.66464 54.44188 12907 ft 276 kts 35°
2026-05-06 19:27 24.68078 54.45395 13425 ft 281 kts 34°
2026-05-06 19:27 24.69715 54.46566 14063 ft 282 kts 33°
2026-05-06 19:27 24.71388 54.47735 14601 ft 286 kts 34°
2026-05-06 19:27 24.72899 54.49173 15116 ft 289 kts 50°
2026-05-06 19:28 24.73980 54.50993 15646 ft 289 kts 65°
2026-05-06 19:28 24.74843 54.53017 16185 ft 292 kts 65°
2026-05-06 19:28 24.75475 54.54502 16538 ft 294 kts 66°
2026-05-06 19:28 24.76320 54.56524 17046 ft 297 kts 66°
2026-05-06 19:29 24.77177 54.58633 17286 ft 311 kts 66°
2026-05-06 19:29 24.78086 54.60863 17376 ft 328 kts 66°
2026-05-06 19:29 24.79048 54.63218 17456 ft 345 kts 65°
2026-05-06 19:29 24.80223 54.65592 17535 ft 362 kts 59°
2026-05-06 19:30 24.81730 54.67899 17614 ft 379 kts 51°
2026-05-06 19:30 24.83548 54.70050 17959 ft 386 kts 46°
2026-05-06 19:30 24.85437 54.72155 18469 ft 388 kts 46°
2026-05-06 19:30 24.87352 54.74275 18874 ft 392 kts 46°
2026-05-06 19:31 24.89289 54.76408 19303 ft 396 kts 45°
2026-05-06 19:31 24.91249 54.78559 19732 ft 399 kts 45°
2026-05-06 19:31 24.95767 54.82154 20506 ft 406 kts 23°
2026-05-06 19:32 24.98303 54.83543 20920 ft 409 kts 30°
2026-05-06 19:32 25.00743 54.85182 21306 ft 412 kts 31°
2026-05-06 19:32 25.03191 54.86842 21677 ft 415 kts 31°
2026-05-06 19:32 25.05414 54.88348 22009 ft 418 kts 31°
2026-05-06 19:33 25.07868 54.90005 22373 ft 420 kts 31°
2026-05-06 19:33 25.10371 54.91694 22734 ft 423 kts 30°
2026-05-06 19:33 25.12894 54.93395 23087 ft 426 kts 30°
2026-05-06 19:33 25.15402 54.95172 23432 ft 430 kts 35°
2026-05-06 19:34 25.17661 54.97352 23768 ft 434 kts 45°
2026-05-06 19:34 25.19685 54.99844 24107 ft 438 kts 47°
2026-05-06 19:34 25.21690 55.02392 24415 ft 441 kts 48°
2026-05-06 19:34 25.23700 55.04959 24737 ft 443 kts 48°
2026-05-06 19:35 25.25721 55.07547 25029 ft 447 kts 48°
2026-05-06 19:35 25.27758 55.10160 25302 ft 450 kts 48°
2026-05-06 19:35 25.29603 55.12475 25575 ft 451 kts 44°
2026-05-06 19:35 25.32006 55.14692 25857 ft 451 kts 34°
2026-05-06 19:36 25.34586 55.16695 26137 ft 454 kts 33°
2026-05-06 19:36 25.37180 55.18691 26432 ft 456 kts 33°
2026-05-06 19:36 25.39789 55.20697 26695 ft 459 kts 32°
2026-05-06 19:36 25.42424 55.22722 26987 ft 461 kts 32°
2026-05-06 19:37 25.45027 55.24737 27252 ft 463 kts 33°
2026-05-06 19:37 25.47645 55.26826 27516 ft 466 kts 33°
2026-05-06 19:37 25.50281 55.28941 27776 ft 468 kts 33°
2026-05-06 19:37 25.52935 55.31071 28024 ft 471 kts 33°
2026-05-06 19:38 25.55554 55.33271 28243 ft 476 kts 38°
2026-05-06 19:38 25.57989 55.35781 28556 ft 478 kts 41°
2026-05-06 19:38 25.60419 55.38321 28783 ft 481 kts 41°
2026-05-06 19:38 25.62851 55.40868 29030 ft 483 kts 41°
2026-05-06 19:39 25.65302 55.43438 29265 ft 486 kts 41°
2026-05-06 19:39 25.67737 55.45992 29460 ft 489 kts 40°
2026-05-06 19:39 25.70212 55.48590 29711 ft 490 kts 40°
2026-05-06 19:39 25.72690 55.51195 29944 ft 492 kts 40°
2026-05-06 19:40 25.75187 55.53819 30137 ft 494 kts 40°
2026-05-06 19:40 25.77690 55.56453 30392 ft 495 kts 40°
2026-05-06 19:40 25.80193 55.59089 30639 ft 497 kts 40°
2026-05-06 19:40 25.82711 55.61740 30746 ft 500 kts 40°
2026-05-06 19:41 25.87980 55.66722 30780 ft 493 kts 29°
2026-05-06 19:41 25.93751 55.70729 30782 ft 492 kts 28°
2026-05-06 19:42 25.99618 55.74754 30780 ft 493 kts 28°
2026-05-06 19:42 26.05619 55.78220 30775 ft 484 kts 13°
2026-05-06 19:43 26.08890 55.78978 30775 ft 476 kts
2026-05-06 19:43 26.12170 55.78998 30779 ft 470 kts 352°
2026-05-06 19:43 26.18698 55.78605 30772 ft 470 kts 353°
2026-05-06 19:44 26.25267 55.79457 30768 ft 480 kts
2026-05-06 19:44 26.31818 55.80906 30762 ft 480 kts
2026-05-06 19:45 26.38370 55.82357 30762 ft 480 kts
2026-05-06 19:45 26.44890 55.83799 30761 ft 480 kts
2026-05-06 19:46 26.51459 55.85250 30761 ft 480 kts
2026-05-06 19:46 26.58018 55.86699 30761 ft 481 kts
2026-05-06 19:47 26.64577 55.88148 30760 ft 481 kts
2026-05-06 19:47 26.71147 55.89600 30759 ft 481 kts
2026-05-06 19:48 26.77720 55.90933 30757 ft 478 kts
2026-05-06 19:48 26.84327 55.91765 30755 ft 477 kts
2026-05-06 19:49 26.90939 55.92572 30753 ft 477 kts
2026-05-06 19:49 26.97539 55.93379 30751 ft 477 kts
2026-05-06 19:50 27.04097 55.94182 30748 ft 476 kts
2026-05-06 19:50 27.10696 55.94992 30746 ft 477 kts
2026-05-06 19:51 27.17291 55.95801 30744 ft 476 kts
2026-05-06 19:51 27.23889 55.96613 30744 ft 477 kts
2026-05-06 19:52 27.30473 55.97424 30744 ft 476 kts
2026-05-06 19:52 27.37017 55.98231 30747 ft 476 kts
2026-05-06 19:53 27.43612 55.99045 30749 ft 476 kts
2026-05-06 19:53 27.50190 55.99860 30753 ft 475 kts
2026-05-06 19:54 27.56748 56.00672 30757 ft 474 kts
2026-05-06 19:54 27.63303 56.01484 30762 ft 474 kts
2026-05-06 19:55 27.69863 56.02298 30769 ft 474 kts
2026-05-06 19:55 27.76424 56.03114 30791 ft 474 kts
2026-05-06 19:56 27.82948 56.03925 30802 ft 474 kts
2026-05-06 19:56 27.89511 56.04742 30813 ft 474 kts
2026-05-06 19:57 27.96077 56.05561 30825 ft 474 kts
2026-05-06 19:57 28.02636 56.06380 30836 ft 474 kts
2026-05-06 19:58 28.09200 56.07201 30848 ft 474 kts
2026-05-06 19:58 28.15764 56.08023 30860 ft 474 kts
2026-05-06 19:59 28.22282 56.08936 30872 ft 475 kts
2026-05-06 19:59 28.28843 56.09874 30884 ft 475 kts
2026-05-06 20:00 28.35396 56.10810 30896 ft 475 kts
2026-05-06 20:00 28.41954 56.11746 30908 ft 475 kts
2026-05-06 20:01 28.48519 56.12684 30920 ft 475 kts
2026-05-06 20:01 28.55072 56.13620 30932 ft 475 kts
2026-05-06 20:02 28.61590 56.14552 30944 ft 475 kts
2026-05-06 20:02 28.68122 56.15487 30956 ft 471 kts
2026-05-06 20:03 28.74632 56.16419 30968 ft 471 kts
2026-05-06 20:03 28.81143 56.17351 30980 ft 471 kts
2026-05-06 20:04 28.86548 56.18125 30990 ft 472 kts
2026-05-06 20:04 28.93076 56.19060 31002 ft 472 kts
2026-05-06 20:05 28.99609 56.19995 31014 ft 473 kts
2026-05-06 20:05 29.06146 56.20933 31014 ft 473 kts
2026-05-06 20:06 29.12667 56.21868 31027 ft 473 kts
2026-05-06 20:06 29.19199 56.22806 31041 ft 472 kts
2026-05-06 20:07 29.25678 56.23736 31054 ft 472 kts
2026-05-06 20:07 29.32206 56.24675 31067 ft 472 kts
2026-05-06 20:08 29.38732 56.25614 31080 ft 473 kts
2026-05-06 20:08 29.45273 56.26556 31092 ft 473 kts
2026-05-06 20:09 29.51825 56.27502 31103 ft 473 kts
2026-05-06 20:09 29.58368 56.28447 31114 ft 473 kts
2026-05-06 20:10 29.64869 56.29387 31139 ft 473 kts
2026-05-06 20:10 29.71405 56.30334 31149 ft 473 kts
2026-05-06 20:11 29.77943 56.31282 31155 ft 473 kts 360°
2026-05-06 20:11 29.84497 56.32233 31161 ft 473 kts 360°
2026-05-06 20:12 29.91043 56.33184 31166 ft 475 kts
2026-05-06 20:12 29.97562 56.34133 31168 ft 474 kts
2026-05-06 20:13 30.04113 56.35088 31171 ft 474 kts
2026-05-06 20:13 30.10663 56.36044 31175 ft 474 kts
2026-05-06 20:14 30.17216 56.37001 31177 ft 474 kts
2026-05-06 20:14 30.23763 56.37960 31188 ft 473 kts 360°
2026-05-06 20:15 30.30266 56.38910 31190 ft 473 kts 360°
2026-05-06 20:15 30.36796 56.39863 31190 ft 473 kts 360°
2026-05-06 20:16 30.43334 56.40816 31189 ft 473 kts 360°
2026-05-06 20:16 30.49864 56.41769 31189 ft 473 kts 360°
2026-05-06 20:17 30.56396 56.42721 31188 ft 473 kts 360°
2026-05-06 20:17 30.62932 56.43675 31186 ft 473 kts 360°
2026-05-06 20:18 30.69419 56.44623 31185 ft 473 kts 360°
2026-05-06 20:18 30.75946 56.45577 31183 ft 473 kts 360°
2026-05-06 20:19 30.82480 56.46533 31179 ft 473 kts 360°
2026-05-06 20:19 30.89013 56.47490 31178 ft 473 kts 360°
2026-05-06 20:20 30.95537 56.48446 31176 ft 473 kts 360°
2026-05-06 20:20 31.02084 56.49407 31173 ft 473 kts 360°
2026-05-06 20:21 31.08608 56.50363 31170 ft 473 kts 360°
2026-05-06 20:21 31.15097 56.51313 31167 ft 473 kts 360°
2026-05-06 20:22 31.21628 56.52269 31164 ft 472 kts 360°
2026-05-06 20:22 31.28156 56.53225 31161 ft 472 kts 360°
2026-05-06 20:23 31.34674 56.54180 31158 ft 472 kts 360°
2026-05-06 20:23 31.41202 56.55138 31154 ft 473 kts 360°
2026-05-06 20:24 31.47691 56.56090 31151 ft 472 kts 360°
2026-05-06 20:24 31.54221 56.57052 31148 ft 473 kts 360°
2026-05-06 20:25 31.60766 56.58018 31146 ft 474 kts 360°
2026-05-06 20:25 31.67302 56.58985 31143 ft 471 kts 360°
2026-05-06 20:26 31.73800 56.59945 31140 ft 471 kts 360°
2026-05-06 20:26 31.80258 56.60900 31138 ft 471 kts 360°
2026-05-06 20:27 31.86765 56.61863 31135 ft 471 kts 360°
2026-05-06 20:27 31.93270 56.62826 31133 ft 471 kts 360°
2026-05-06 20:28 31.99769 56.63792 31137 ft 471 kts 360°
2026-05-06 20:28 32.06266 56.64761 31135 ft 470 kts 360°
2026-05-06 20:29 32.12711 56.65723 31133 ft 470 kts 360°
2026-05-06 20:29 32.19209 56.66694 31132 ft 470 kts 360°
2026-05-06 20:30 32.28925 56.68147 31130 ft 469 kts 360°
2026-05-06 20:31 32.35402 56.69117 31128 ft 469 kts 360°
2026-05-06 20:31 32.41871 56.70087 31127 ft 469 kts 360°
2026-05-06 20:32 32.48344 56.71058 31126 ft 469 kts 360°
2026-05-06 20:32 32.54820 56.72031 31120 ft 469 kts 360°
2026-05-06 20:33 32.61294 56.73004 31116 ft 469 kts
2026-05-06 20:33 32.67769 56.73980 31115 ft 468 kts
2026-05-06 20:34 32.74200 56.74950 31113 ft 468 kts
2026-05-06 20:34 32.80673 56.75928 31112 ft 468 kts